Date,TemperatureHighF,TemperatureAvgF,TemperatureLowF,DewpointHighF,DewpointAvgF,DewpointLowF,HumidityHigh,HumidityAvg,HumidityLow,PressureMaxIn,PressureMinIn,WindSpeedMaxMPH,WindSpeedAvgMPH,GustSpeedMaxMPH,PrecipitationSumIn
2013-1-1,11,5,1,-100,-100,-100,0,0,100,0.00,40.00,0,-999,0,0.00
2013-1-2,27,18,2,-100,-100,-100,0,0,100,0.00,40.00,0,-999,0,0.00
2013-1-3,29,20,4,-100,-100,-100,0,0,100,0.00,40.00,0,-999,0,0.00
2013-1-4,35,20,4,-100,-100,-100,0,0,100,0.00,40.00,0,-999,0,0.00
2013-1-5,35,26,17,-100,-100,-100,0,0,100,0.00,40.00,0,-999,0,0.00
2013-1-6,27,18,10,-100,-100,-100,0,0,100,0.00,40.00,0,-999,0,0.00
2013-1-7,43,28,16,-100,-100,-100,0,0,100,0.00,40.00,0,-999,0,0.00
2013-1-8,44,34,23,-100,-100,-100,0,0,100,0.00,40.00,0,-999,0,0.00
2013-1-9,43,32,27,-100,-100,-100,0,0,100,0.00,40.00,0,-999,0,0.00
2013-1-10,36,31,26,-100,-100,-100,0,0,100,0.00,40.00,0,-999,0,0.00
2013-1-11,54,43,32,-100,-100,-100,0,0,100,0.00,40.00,0,-999,0,0.00
2013-1-12,53,27,14,-100,-100,-100,0,0,100,0.00,40.00,0,-999,0,0.00
2013-1-13,12,7,3,-100,-100,-100,0,0,100,0.00,40.00,0,-999,0,0.00
2013-1-14,29,14,2,-100,-100,-100,0,0,100,0.00,40.00,0,-999,0,0.00
2013-1-15,34,20,10,-100,-100,-100,0,0,100,0.00,40.00,0,-999,0,0.00
2013-1-16,45,33,16,-100,-100,-100,0,0,100,0.00,40.00,0,-999,0,0.00
2013-1-17,36,22,14,-100,-100,-100,0,0,100,0.00,40.00,0,-999,0,0.00
2013-1-18,58,39,19,-100,-100,-100,0,0,100,0.00,40.00,0,-999,0,0.00
2013-1-19,54,40,31,-100,-100,-100,0,0,100,0.00,40.00,0,-999,0,0.00
2013-1-20,12,8,3,-100,-100,-100,0,0,100,0.00,40.00,0,-999,0,0.00
2013-1-21,3,-1,-6,-100,-100,-100,0,0,100,0.00,40.00,0,-999,0,0.00
2013-1-22,12,8,1,-100,-100,-100,0,0,100,0.00,40.00,0,-999,0,0.00
2013-1-23,26,13,1,-100,-100,-100,0,0,100,0.00,40.00,0,-999,0,0.00
2013-1-24,13,4,-3,-100,-100,-100,0,0,100,0.00,40.00,0,-999,0,0.00
2013-1-25,37,25,10,-100,-100,-100,0,0,100,0.00,40.00,0,-999,0,0.00
2013-1-26,32,15,1,-100,-100,-100,0,0,100,0.00,40.00,0,-999,0,0.00
2013-1-27,38,28,25,-100,-100,-100,0,0,100,0.00,40.00,0,-999,0,0.00
2013-1-28,40,36,32,-100,-100,-100,0,0,100,0.00,40.00,0,-999,0,0.00
2013-1-29,62,40,29,-100,-100,-100,0,0,100,0.00,40.00,0,-999,0,0.00
2013-1-30,28,18,10,-100,-100,-100,0,0,100,0.00,40.00,0,-999,0,0.00
2013-1-31,1,-1,-7,-100,-100,-100,0,0,100,0.00,40.00,0,-999,0,0.00